Weather History for KCGS - January, 2013

Change the Weather History Date:

Tuesday, January 22, 2013

  Actual Average Record
Temperature  
Mean Temperature 26 °F -  
Max Temperature 30 °F 42 °F 71 °F (1959)
Min Temperature 19 °F 24 °F -9 °F (1961)
Degree Days  
Heating Degree Days 40    
Moisture  
Dew Point 0 °F    
Average Humidity 36    
Maximum Humidity 51    
Minimum Humidity 29    
Precipitation  
Precipitation 0.00 in - - ()
Sea Level Pressure  
Sea Level Pressure 30.18 in    
Wind  
Wind Speed 12 mph (NW)    
Max Wind Speed 17 mph    
Max Gust Speed 33 mph    
Visibility 10 miles    
Events      
Averages and records for this station are not official NWS values.
T = Trace of Precipitation, MM = Missing Value Source: NWS Daily Summary

Daily Weather History Graph

Daily Weather History Graph

Search for Another Location

Airport or City:

Trip Planner

Search our weather history database for the weather conditions in past years. The results will help you decide how hot, cold, wet, or windy it might be!

Date:

Astronomy

Jan. 22, 2013 Rise Set
Actual Time 7:21 AM EST 5:17 PM EST
Civil Twilight 6:52 AM EST 5:46 PM EST
Nautical Twilight 6:20 AM EST 6:18 PM EST
Astronomical Twilight 5:48 AM EST 6:50 PM EST
Moon 1:39 PM EST (1/22) 3:40 AM EST (1/22)
Length of Visible Light 10h 53m
Length of Day
9h 56m
Waxing Gibbous, 82% of the Moon is Illuminated
Jan 22
Waxing Gibbous
Jan 26
Full
Feb 3
Last Quarter
Feb 10
New
Feb 17
First Quarter

Hourly Weather History & Observations

Time (EST) Temp. Windchill Dew Point Humidity Pressure Visibility Wind Dir Wind Speed Gust Speed Precip Events Conditions
12:00 AM 32.5 °F 22.7 °F 13.1 °F 45% 29.94 in 10.0 mi NW 13.8 mph 33.4 mph N/A   Clear
12:20 AM 32.2 °F 22.3 °F 12.7 °F 45% 29.95 in 10.0 mi NW 13.8 mph 23.0 mph N/A   Clear
12:45 AM 31.1 °F 19.7 °F 14.9 °F 51% 29.95 in 10.0 mi NW 17.3 mph 21.9 mph N/A   Clear
1:05 AM 30.9 °F 20.2 °F 12.2 °F 46% 29.95 in 10.0 mi WNW 15.0 mph 26.5 mph N/A   Clear
1:25 AM 30.2 °F 21.9 °F 11.5 °F 46% 29.97 in 10.0 mi NW 9.2 mph 18.4 mph N/A   Clear
1:40 AM 29.8 °F 19.3 °F 10.8 °F 45% 29.98 in 10.0 mi NW 13.8 mph 25.3 mph N/A   Clear
2:10 AM 28.8 °F 16.6 °F 8.1 °F 42% 30.02 in 10.0 mi NW 17.3 mph 25.3 mph N/A   Clear
2:50 AM 26.6 °F 16.8 °F 3.2 °F 37% 30.04 in 10.0 mi WNW 10.4 mph 24.2 mph N/A   Clear
3:10 AM 26.4 °F 14.5 °F 2.8 °F 36% 30.04 in 10.0 mi NW 15.0 mph 27.6 mph N/A   Clear
3:35 AM 25.7 °F 13.5 °F 2.5 °F 37% 30.05 in 10.0 mi NW 15.0 mph 23.0 mph N/A   Clear
3:55 AM 25.5 °F 13.8 °F 1.8 °F 36% 30.05 in 10.0 mi WNW 13.8 mph 27.6 mph N/A   Clear
4:15 AM 24.8 °F 14.6 °F 2.7 °F 39% 30.06 in 10.0 mi NW 10.4 mph 20.7 mph N/A   Clear
4:40 AM 24.3 °F 10.8 °F 2.7 °F 39% 30.07 in 10.0 mi NW 17.3 mph 24.2 mph N/A   Clear
5:00 AM 23.9 °F 10.3 °F -0.0 °F 35% 30.09 in 10.0 mi NW 17.3 mph 25.3 mph N/A   Clear
5:20 AM 23.4 °F 10.1 °F -2.0 °F 33% 30.10 in 10.0 mi WNW 16.1 mph 25.3 mph N/A   Clear
5:40 AM 22.8 °F 10.4 °F -1.8 °F 34% 30.11 in 10.0 mi WNW 13.8 mph 26.5 mph N/A   Clear
6:05 AM 22.1 °F 11.3 °F -1.1 °F 36% 30.12 in 10.0 mi West 10.4 mph 19.6 mph N/A   Clear
6:25 AM 21.9 °F 11.0 °F -0.6 °F 38% 30.14 in 10.0 mi WNW 10.4 mph 18.4 mph N/A   Clear
7:50 AM 21.2 °F 9.5 °F -1.3 °F 37% 30.17 in 10.0 mi WNW 11.5 mph 21.9 mph N/A   Clear
8:10 AM 22.1 °F 10.0 °F -0.6 °F 37% 30.18 in 10.0 mi West 12.7 mph 18.4 mph N/A   Scattered Clouds
8:35 AM 21.2 °F 10.9 °F 1.0 °F 42% 30.20 in 10.0 mi WNW 9.2 mph - N/A   Scattered Clouds
8:55 AM 21.7 °F 7.5 °F -1.8 °F 36% 30.21 in 10.0 mi NW 17.3 mph 27.6 mph N/A   Clear
9:15 AM 22.5 °F 12.4 °F -0.6 °F 37% 30.22 in 10.0 mi NW 9.2 mph 17.3 mph N/A   Mostly Cloudy
9:35 AM 22.5 °F 11.1 °F -1.7 °F 35% 30.22 in 10.0 mi WNW 11.5 mph 16.1 mph N/A   Scattered Clouds
10:00 AM 22.8 °F 13.6 °F -2.4 °F 33% 30.22 in 10.0 mi WNW 8.1 mph 20.7 mph N/A   Clear
10:20 AM 22.8 °F 12.2 °F -2.7 °F 33% 30.24 in 10.0 mi West 10.4 mph 18.4 mph N/A   Clear
10:40 AM 23.0 °F 9.6 °F -3.1 °F 32% 30.24 in 10.0 mi West 16.1 mph 20.7 mph N/A   Scattered Clouds
11:00 AM 23.2 °F 10.8 °F -2.9 °F 32% 30.23 in 10.0 mi West 13.8 mph 24.2 mph N/A   Scattered Clouds
11:25 AM 23.7 °F 14.7 °F -2.4 °F 32% 30.23 in 10.0 mi West 8.1 mph 19.6 mph N/A   Clear
11:45 AM 24.3 °F 12.2 °F -2.2 °F 32% 30.22 in 10.0 mi WNW 13.8 mph 20.7 mph N/A   Clear
12:05 PM 24.6 °F 12.7 °F -2.7 °F 30% 30.22 in 10.0 mi WNW 13.8 mph 23.0 mph N/A   Clear
12:25 PM 24.4 °F 12.4 °F -3.3 °F 30% 30.21 in 10.0 mi WNW 13.8 mph 21.9 mph N/A   Scattered Clouds
12:50 PM 24.8 °F 15.3 °F -2.2 °F 31% 30.19 in 10.0 mi WNW 9.2 mph 19.6 mph N/A   Clear
1:10 PM 24.8 °F 15.3 °F -2.4 °F 31% 30.19 in 10.0 mi NNW 9.2 mph 23.0 mph N/A   Scattered Clouds
1:30 PM 25.7 °F 13.5 °F -2.2 °F 30% 30.19 in 10.0 mi NW 15.0 mph 24.2 mph N/A   Clear
1:50 PM 25.7 °F 13.1 °F -2.4 °F 30% 30.18 in 10.0 mi WNW 16.1 mph 21.9 mph N/A   Clear
2:15 PM 24.6 °F 16.7 °F -3.1 °F 30% 30.18 in 10.0 mi WNW 6.9 mph 21.9 mph N/A   Clear
2:35 PM 26.1 °F 16.2 °F -2.7 °F 29% 30.18 in 10.0 mi NNW 10.4 mph 19.6 mph N/A   Clear
2:45 PM 26.6 °F 16.8 °F -2.2 °F 29% 30.18 in 10.0 mi West 10.4 mph 18.4 mph N/A   Clear
3:15 PM 26.1 °F 16.8 °F -2.7 °F 29% 30.19 in 10.0 mi West 9.2 mph 20.7 mph N/A   Clear
3:40 PM 25.7 °F 17.1 °F -2.0 °F 30% 30.19 in 10.0 mi WNW 8.1 mph - N/A   Clear
4:00 PM 25.7 °F 14.0 °F -2.4 °F 30% 30.20 in 10.0 mi WNW 13.8 mph 23.0 mph N/A   Clear
4:20 PM 25.5 °F 14.3 °F -2.7 °F 29% 30.21 in 10.0 mi West 12.7 mph 18.4 mph N/A   Clear
4:40 PM 25.2 °F 13.9 °F -2.7 °F 30% 30.21 in 10.0 mi NW 12.7 mph 20.7 mph N/A   Clear
5:05 PM 23.9 °F 15.0 °F -3.3 °F 31% 30.22 in 10.0 mi West 8.1 mph 17.3 mph N/A   Clear
5:25 PM 23.5 °F 14.5 °F -3.1 °F 31% 30.23 in 10.0 mi WNW 8.1 mph - N/A   Clear
5:45 PM 23.4 °F 15.2 °F -2.7 °F 32% 30.24 in 10.0 mi WNW 6.9 mph 16.1 mph N/A   Clear
6:05 PM 23.0 °F 14.7 °F -2.0 °F 34% 30.25 in 10.0 mi NNW 6.9 mph - N/A   Clear
6:30 PM 22.8 °F 12.2 °F -1.7 °F 34% 30.27 in 10.0 mi NNW 10.4 mph - N/A   Clear
6:50 PM 22.3 °F 13.0 °F -1.5 °F 35% 30.27 in 10.0 mi NW 8.1 mph - N/A   Clear
7:10 PM 22.1 °F 12.0 °F -1.3 °F 36% 30.27 in 10.0 mi NW 9.2 mph - N/A   Clear
7:30 PM 21.9 °F 13.4 °F -1.1 °F 37% 30.27 in 10.0 mi NNW 6.9 mph - N/A   Clear
7:55 PM 21.6 °F 14.0 °F -0.8 °F 38% 30.27 in 10.0 mi NW 5.8 mph - N/A   Clear
8:15 PM 21.2 °F 12.6 °F -0.4 °F 39% 30.28 in 10.0 mi NNW 6.9 mph - N/A   Clear
8:35 PM 21.2 °F 10.9 °F -0.4 °F 39% 30.28 in 10.0 mi NW 9.2 mph - N/A   Clear
9:00 PM 20.8 °F 12.1 °F -0.0 °F 40% 30.28 in 10.0 mi NNW 6.9 mph - N/A   Clear
9:20 PM 20.3 °F 10.6 °F 0.7 °F 43% 30.28 in 10.0 mi NNW 8.1 mph - N/A   Clear
9:40 PM 20.3 °F 12.5 °F 0.5 °F 42% 30.29 in 10.0 mi NNW 5.8 mph - N/A   Clear
10:00 PM 20.1 °F 10.3 °F 0.7 °F 43% 30.30 in 10.0 mi NNW 8.1 mph - N/A   Clear
10:25 PM 19.9 °F 13.4 °F 1.2 °F 44% 30.30 in 10.0 mi NNW 4.6 mph - N/A   Clear
11:05 PM 19.4 °F 12.8 °F 2.1 °F 47% 30.31 in 10.0 mi NNW 4.6 mph - N/A   Clear
11:25 PM 19.4 °F 10.4 °F 2.1 °F 47% 30.31 in 10.0 mi NNW 6.9 mph - N/A   Clear
11:50 PM 19.0 °F 11.1 °F 2.3 °F 48% 30.30 in 10.0 mi NW 5.8 mph - N/A   Clear